Other Public Products
Issued by NWS Charleston, SC

Current Version | Previous Version | Text Only | Print | Product List | Glossary Off
Versions: 1 2 3 4 5 6 7 8 9 10 11 12 13 14 15 16 17 18 19 20 21 22 23 24 25 26 27 28 29 30 31 32 33 34 35 36 37 38 39 40 41 42 43 44 45 46 47 48 49 50
106 FPUS82 KCHS 231412 OPUCHS TEST...KCHS/KSAV Gateway Observations...TEST National Weather Service Charleston SC 900 AM EST TUE JAN 23 2018 NOTE: "fair" indicates few or no clouds below 12,000 feet with no significant weather and/or obstructions to visibility. SCZ050-WAZ558-NCZ071-TXZ119-213-PAZ071-DCZ001-FLZ074-172-MI076- NYZ176-178-MAZ016-IL014-TNZ027-NJZ106-GAZ044-MD014-231500- ...Gateway Observations for Charleston International... CITY SKY/WX TMP DP RH WIND PRES REMARKS Chas Airport CLOUDY 65 62 90 SW15 29.94R Seattle CLOUDY 43 31 62 SE10 30.03F Charlotte FAIR 60 52 74 SW12 29.83R Dallas DFW MOCLDY 38 20 48 NW9 30.24R WCI 31 Dallas Love MOCLDY 37 22 54 NW5 30.26R WCI 33 Philladelphia LGT RAIN 57 54 89 S16G22 29.68F Wash National CLOUDY 57 56 96 S9 29.65S Baltimore CLOUDY 57 57 100 SE5 29.64R Miami CLOUDY 77 73 87 SE8 30.09R Detroit CLOUDY 37 35 92 SW18 29.56F WCI 27 Newark LGT RAIN 53 51 93 SE3 29.71F FOG Laguardia LGT RAIN 50 49 96 S16 29.72F VSB 3/4 J F K LGT RAIN 46 46 100 S16 29.75F VSB 1/8 Boston Logan FOG 33 33 100 N3 29.89F VSB 1/4 Ft. Lauderdale CLOUDY 75 73 93 SE14 30.07R Chicago O`Hare CLOUDY 31 27 85 NW14 29.69R WCI 21 Chicago Midway MOCLDY 32 28 85 NW16 29.69R WCI 21 Houston Bush MOCLDY 41 31 67 CALM 30.26R Houston Hobby MOCLDY 46 30 53 NW7 30.25R Nashville FAIR 45 28 51 W9G20 29.95R Atlanta FAIR 46 33 60 W13 29.98R $$ GAZ044-118-TXZ119-213-NCZ071-DCZ001-MDZ014-506-PAZ021-071-NJZ106- NYZ176-178-MAZ106-OHZ011-021-055-MIZ076-KYZ091-ILZ014-INZ047- MNZ060-ONZ431-231500- ...Gateway Observations for Savannah International... CITY SKY/WX TMP DP RH WIND PRES REMARKS Savannah Arpt CLOUDY 68 64 87 SW12 29.96R Atlanta FAIR 46 33 60 W13 29.98R Charlotte FAIR 60 52 74 SW12 29.83R Dallas DFW MOCLDY 38 20 48 NW9 30.24R WCI 31 Houston Bush MOCLDY 41 31 67 CALM 30.26R Wash National CLOUDY 57 56 96 S9 29.65S Wash Dulles PTSUNNY 58 58 100 SW8 29.65R Baltimore CLOUDY 57 57 100 SE5 29.64R Philadelphia LGT RAIN 57 54 89 S16G22 29.68F Newark LGT RAIN 53 51 93 SE3 29.71F FOG Laguardia LGT RAIN 50 49 96 S16 29.72F VSB 3/4 J F K LGT RAIN 46 46 100 S16 29.75F VSB 1/8 Boston FOG 33 33 100 N3 29.89F VSB 1/4 Pittsburg PTSUNNY 45 34 65 SW10G18 29.64S Akron LGT RAIN 43 33 68 W16G25 29.62R Cleveland CLOUDY 40 35 83 SW13 29.64R WCI 32 Cincinnati PTSUNNY 37 33 85 W10 29.77R WCI 30 Columbus CLOUDY 37 35 91 SW14 29.72R WCI 29 Detroit CLOUDY 37 35 92 SW18 29.56F WCI 27 Chicago O`Hare CLOUDY 31 27 85 NW14 29.69R WCI 21 Minneapolis CLOUDY 19 14 81 N16 29.99R WCI 4 Indianapolis FLURRIES 34 32 92 W16 29.75R WCI 24 Toronto Canada CLOUDY 37 37 100 S5 29.47 FOG WCI 34 $$

USA.gov is the U.S. government's official web portal to all federal, state and local government web resources and services.